TimeCDT,TemperatureF,Dew PointF,Humidity,Sea Level PressureIn,VisibilityMPH,Wind Direction,Wind SpeedMPH,Gust SpeedMPH,PrecipitationIn,Events,Conditions,WindDirDegrees,DateUTC
12:15 AM,44.6,32.0,61,30.04,10.0,SSE,4.6,-,N/A,,Clear,160,2012-03-14 05:15:00
12:35 AM,42.8,30.2,61,30.04,10.0,SSE,3.5,-,N/A,,Clear,160,2012-03-14 05:35:00
12:55 AM,39.2,30.2,70,30.03,10.0,Calm,Calm,-,N/A,,Clear,0,2012-03-14 05:55:00
1:15 AM,35.6,32.0,87,30.03,10.0,SSE,4.6,-,N/A,,Clear,150,2012-03-14 06:15:00
1:35 AM,37.4,32.0,81,30.02,10.0,Calm,Calm,-,N/A,,Clear,0,2012-03-14 06:35:00
1:55 AM,39.2,32.0,75,30.02,10.0,Calm,Calm,-,N/A,,Clear,0,2012-03-14 06:55:00
2:15 AM,39.2,30.2,70,30.02,10.0,Calm,Calm,-,N/A,,Clear,0,2012-03-14 07:15:00
2:35 AM,39.2,30.2,70,30.01,10.0,Calm,Calm,-,N/A,,Clear,0,2012-03-14 07:35:00
2:55 AM,37.4,30.2,75,30.00,10.0,Calm,Calm,-,N/A,,Clear,0,2012-03-14 07:55:00
3:15 AM,37.4,30.2,75,30.00,10.0,Calm,Calm,-,N/A,,Clear,0,2012-03-14 08:15:00
3:35 AM,37.4,30.2,75,30.00,10.0,Calm,Calm,-,N/A,,Clear,0,2012-03-14 08:35:00
3:55 AM,37.4,30.2,75,30.00,10.0,Calm,Calm,-,N/A,,Clear,0,2012-03-14 08:55:00
4:15 AM,35.6,32.0,87,29.99,10.0,SSE,3.5,-,N/A,,Clear,150,2012-03-14 09:15:00
4:35 AM,39.2,32.0,75,29.99,10.0,SSE,4.6,-,N/A,,Clear,160,2012-03-14 09:35:00
4:55 AM,37.4,32.0,81,29.99,10.0,Calm,Calm,-,N/A,,Clear,0,2012-03-14 09:55:00
5:35 AM,35.6,32.0,87,29.98,10.0,South,3.5,-,N/A,,Clear,170,2012-03-14 10:35:00
5:45 AM,39.2,32.0,75,29.98,10.0,South,4.6,-,N/A,,Clear,180,2012-03-14 10:45:00
7:45 AM,48.2,41.0,76,29.98,10.0,South,8.1,-,N/A,,Clear,190,2012-03-14 12:45:00
8:45 AM,53.6,46.4,77,29.97,10.0,South,9.2,-,N/A,,Clear,190,2012-03-14 13:45:00
9:45 AM,60.8,50.0,68,29.97,10.0,SSW,12.7,-,N/A,,Clear,200,2012-03-14 14:45:00
10:45 AM,64.4,51.8,64,29.96,10.0,SSW,10.4,-,N/A,,Clear,200,2012-03-14 15:45:00
11:45 AM,66.2,53.6,64,29.95,10.0,South,11.5,-,N/A,,Clear,190,2012-03-14 16:45:00
12:45 PM,69.8,55.4,60,29.94,10.0,South,12.7,-,N/A,,Clear,180,2012-03-14 17:45:00
1:45 PM,71.6,55.4,57,29.91,10.0,SSW,11.5,-,N/A,,Clear,200,2012-03-14 18:45:00
2:45 PM,73.4,57.2,57,29.89,10.0,SSW,12.7,-,N/A,,Clear,200,2012-03-14 19:45:00
3:45 PM,73.4,57.2,57,29.89,10.0,SSW,15.0,-,N/A,,Scattered Clouds,210,2012-03-14 20:45:00
4:45 PM,73.4,55.4,53,29.88,10.0,SSW,20.7,34.5,N/A,,Clear,200,2012-03-14 21:45:00
5:45 PM,73.4,55.4,53,29.88,10.0,SSW,11.5,23.0,N/A,,Clear,210,2012-03-14 22:45:00
6:45 PM,71.6,55.4,57,29.89,10.0,SSW,13.8,-,N/A,,Clear,200,2012-03-14 23:45:00
8:45 PM,68.0,55.4,64,29.93,10.0,SSW,11.5,-,N/A,,Clear,200,2012-03-15 01:45:00
9:15 PM,64.4,55.4,73,29.94,10.0,SW,6.9,-,N/A,,Scattered Clouds,230,2012-03-15 02:15:00
9:35 PM,66.2,55.4,68,29.94,10.0,WSW,10.4,16.1,N/A,,Mostly Cloudy,240,2012-03-15 02:35:00
9:55 PM,66.2,55.4,68,29.93,10.0,SW,8.1,-,N/A,,Scattered Clouds,230,2012-03-15 02:55:00
10:15 PM,64.4,55.4,73,29.93,10.0,SW,5.8,-,N/A,,Clear,230,2012-03-15 03:15:00
10:35 PM,64.4,55.4,73,29.93,10.0,SSW,5.8,-,N/A,,Clear,210,2012-03-15 03:35:00
10:55 PM,62.6,55.4,77,29.93,10.0,SW,5.8,-,N/A,,Clear,220,2012-03-15 03:55:00
11:15 PM,62.6,55.4,77,29.93,10.0,SW,5.8,-,N/A,,Clear,220,2012-03-15 04:15:00
11:35 PM,62.6,55.4,77,29.93,10.0,South,3.5,-,N/A,,Clear,190,2012-03-15 04:35:00
11:55 PM,60.8,55.4,82,29.93,10.0,South,3.5,-,N/A,,Clear,190,2012-03-15 04:55:00